Princeton, MN

6:17 AM CST on December 11, 2017 (GMT -0600)
Princeton Municipal

Weather History for KPNM - May, 2013

Change the Weather History Date:

Monday, May 27, 2013

  Actual Average Record
Temperature  
Mean Temperature 58 °F -  
Max Temperature 60 °F 67 °F 89 °F (2006)
Min Temperature 55 °F 44 °F 35 °F (2003)
Degree Days  
Heating Degree Days 8    
Growing Degree Days 8 (Base 50)    
Moisture  
Dew Point 48 °F    
Average Humidity 70    
Maximum Humidity 88    
Minimum Humidity 59    
Precipitation  
Precipitation 0.00 in - - ()
Sea Level Pressure  
Sea Level Pressure 29.95 in    
Wind  
Wind Speed 8 mph (East)    
Max Wind Speed 15 mph    
Max Gust Speed 21 mph    
Visibility 10 miles    
Events      
Averages and records for this station are not official NWS values.
T = Trace of Precipitation, MM = Missing Value Source: NWS Daily Summary

Daily Weather History Graph

Daily Weather History Graph

Search for Another Location

Airport or City:

Trip Planner

Search our weather history database for the weather conditions in past years. The results will help you decide how hot, cold, wet, or windy it might be!

Date:

Astronomy

May. 27, 2013 Rise Set
Actual Time 5:32 AM CDT 8:51 PM CDT
Civil Twilight 4:55 AM CDT 9:28 PM CDT
Nautical Twilight 4:08 AM CDT 10:15 PM CDT
Astronomical Twilight 3:08 AM CDT 11:16 PM CDT
Moon 11:27 PM CDT (5/27) 8:12 AM CDT (5/27)
Length of Visible Light 16h 32m
Length of Day
15h 19m
Waning Gibbous, 91% of the Moon is Illuminated
May 27
Waning Gibbous
May 31
Last Quarter
Jun 8
New
Jun 16
First Quarter
Jun 23
Full

Hourly Weather History & Observations

Time (CDT) Temp. Dew Point Humidity Pressure Visibility Wind Dir Wind Speed Gust Speed Precip Events Conditions
12:11 AM 57.2 °F 42.8 °F 59% 30.06 in 10.0 mi East 6.9 mph - N/A   Overcast
12:31 AM 57.2 °F 42.8 °F 59% 30.06 in 10.0 mi East 8.1 mph - N/A   Overcast
12:51 AM 57.2 °F 42.8 °F 59% 30.07 in 10.0 mi East 6.9 mph - N/A   Overcast
1:11 AM 57.2 °F 42.8 °F 59% 30.06 in 10.0 mi East 6.9 mph - N/A   Overcast
1:31 AM 57.2 °F 44.6 °F 63% 30.04 in 10.0 mi East 5.8 mph - N/A   Overcast
1:51 AM 57.2 °F 44.6 °F 63% 30.03 in 10.0 mi East 8.1 mph - N/A   Overcast
2:11 AM 57.2 °F 44.6 °F 63% 30.03 in 10.0 mi East 6.9 mph - N/A   Overcast
2:31 AM 57.2 °F 44.6 °F 63% 30.03 in 10.0 mi East 5.8 mph - N/A   Overcast
2:51 AM 57.2 °F 44.6 °F 63% 30.04 in 10.0 mi ESE 6.9 mph - N/A   Overcast
3:11 AM 57.2 °F 44.6 °F 63% 30.04 in 10.0 mi ESE 6.9 mph - N/A   Overcast
3:32 AM 57.2 °F 44.6 °F 63% 30.02 in 10.0 mi ESE 6.9 mph - N/A   Overcast
3:51 AM 57.2 °F 44.6 °F 63% 30.01 in 10.0 mi ESE 9.2 mph 18.4 mph N/A   Overcast
4:11 AM 55.4 °F 46.4 °F 72% 30.00 in 10.0 mi ESE 8.1 mph - N/A   Overcast
4:32 AM 55.4 °F 46.4 °F 72% 30.00 in 10.0 mi ESE 6.9 mph - N/A   Overcast
4:51 AM 55.4 °F 46.4 °F 72% 30.01 in 10.0 mi ESE 6.9 mph - N/A   Overcast
5:11 AM 55.4 °F 46.4 °F 72% 30.01 in 10.0 mi East 6.9 mph - N/A   Overcast
5:32 AM 55.4 °F 46.4 °F 72% 30.01 in 10.0 mi East 6.9 mph - N/A   Overcast
5:51 AM 55.4 °F 46.4 °F 72% 30.01 in 10.0 mi East 9.2 mph - N/A   Overcast
6:11 AM 55.4 °F 46.4 °F 72% 30.01 in 10.0 mi ENE 6.9 mph - N/A   Overcast
6:32 AM 55.4 °F 46.4 °F 72% 30.00 in 10.0 mi East 6.9 mph - N/A   Overcast
6:51 AM 55.4 °F 46.4 °F 72% 30.00 in 10.0 mi East 10.4 mph - N/A   Overcast
7:11 AM 55.4 °F 46.4 °F 72% 29.99 in 10.0 mi East 9.2 mph 16.1 mph N/A   Overcast
7:32 AM 55.4 °F 46.4 °F 72% 29.99 in 10.0 mi East 10.4 mph 20.7 mph N/A   Overcast
7:51 AM 55.4 °F 46.4 °F 72% 29.98 in 10.0 mi East 12.7 mph 18.4 mph N/A   Overcast
8:11 AM 55.4 °F 46.4 °F 72% 29.98 in 10.0 mi ESE 9.2 mph - N/A   Overcast
8:32 AM 55.4 °F 46.4 °F 72% 29.99 in 10.0 mi East 10.4 mph 16.1 mph N/A   Overcast
8:51 AM 55.4 °F 46.4 °F 72% 29.98 in 10.0 mi East 8.1 mph - N/A   Overcast
9:11 AM 55.4 °F 46.4 °F 72% 29.97 in 10.0 mi East 8.1 mph - N/A   Overcast
9:32 AM 55.4 °F 46.4 °F 72% 29.98 in 10.0 mi East 8.1 mph 16.1 mph N/A   Overcast
9:51 AM 55.4 °F 46.4 °F 72% 29.98 in 10.0 mi East 8.1 mph - N/A   Overcast
10:11 AM 57.2 °F 46.4 °F 67% 29.96 in 10.0 mi East 11.5 mph 16.1 mph N/A   Overcast
10:32 AM 57.2 °F 46.4 °F 67% 29.96 in 10.0 mi East 10.4 mph 17.3 mph N/A   Overcast
10:51 AM 59.0 °F 46.4 °F 63% 29.95 in 10.0 mi East 13.8 mph 19.6 mph N/A   Overcast
11:11 AM 59.0 °F 46.4 °F 63% 29.94 in 10.0 mi ESE 15.0 mph - N/A   Overcast
11:32 AM 59.0 °F 46.4 °F 63% 29.94 in 10.0 mi ESE 6.9 mph - N/A   Overcast
11:51 AM 57.2 °F 46.4 °F 67% 29.93 in 10.0 mi East 11.5 mph - N/A   Overcast
12:11 PM 57.2 °F 46.4 °F 67% 29.93 in 10.0 mi East 6.9 mph - N/A   Overcast
12:30 PM 59.0 °F 46.4 °F 63% 29.92 in 10.0 mi East 8.1 mph - N/A   Overcast
12:51 PM 60.8 °F 46.4 °F 59% 29.91 in 10.0 mi ENE 10.4 mph 16.1 mph N/A   Overcast
1:11 PM 59.0 °F 46.4 °F 63% 29.91 in 10.0 mi ENE 13.8 mph - N/A   Overcast
1:31 PM 59.0 °F 46.4 °F 63% 29.91 in 10.0 mi ENE 11.5 mph - N/A   Overcast
1:51 PM 59.0 °F 48.2 °F 67% 29.91 in 10.0 mi ENE 9.2 mph - N/A   Overcast
2:11 PM 57.2 °F 48.2 °F 72% 29.92 in 10.0 mi ENE 9.2 mph - N/A   Overcast
2:31 PM 57.2 °F 48.2 °F 72% 29.92 in 10.0 mi East 10.4 mph - N/A   Overcast
2:51 PM 57.2 °F 48.2 °F 72% 29.92 in 10.0 mi East 8.1 mph - N/A   Overcast
3:11 PM 59.0 °F 50.0 °F 72% 29.92 in 10.0 mi ENE 6.9 mph - N/A   Overcast
3:31 PM 60.8 °F 50.0 °F 68% 29.90 in 10.0 mi East 9.2 mph 17.3 mph N/A   Overcast
3:51 PM 60.8 °F 51.8 °F 72% 29.90 in 10.0 mi East 12.7 mph - N/A   Overcast
4:11 PM 60.8 °F 51.8 °F 72% 29.91 in 10.0 mi East 9.2 mph - N/A   Overcast
4:31 PM 60.8 °F 51.8 °F 72% 29.91 in 10.0 mi East 9.2 mph - N/A   Overcast
4:51 PM 60.8 °F 51.8 °F 72% 29.90 in 10.0 mi East 10.4 mph - N/A   Overcast
5:11 PM 60.8 °F 51.8 °F 72% 29.89 in 10.0 mi East 9.2 mph 16.1 mph N/A   Overcast
5:31 PM 60.8 °F 51.8 °F 72% 29.89 in 10.0 mi East 9.2 mph 16.1 mph N/A   Overcast
5:51 PM 60.8 °F 51.8 °F 72% 29.89 in 10.0 mi East 11.5 mph - N/A   Overcast
6:11 PM 60.8 °F 51.8 °F 72% 29.88 in 10.0 mi East 8.1 mph - N/A   Overcast
6:31 PM 60.8 °F 51.8 °F 72% 29.87 in 10.0 mi East 9.2 mph - N/A   Overcast
6:51 PM 60.8 °F 51.8 °F 72% 29.86 in 10.0 mi East 8.1 mph - N/A   Overcast
7:11 PM 60.8 °F 51.8 °F 72% 29.86 in 10.0 mi East 5.8 mph - N/A   Overcast
7:31 PM 60.8 °F 51.8 °F 72% 29.87 in 10.0 mi East 5.8 mph - N/A   Overcast
7:51 PM 60.8 °F 50.0 °F 68% 29.88 in 10.0 mi East 4.6 mph - N/A   Overcast
8:11 PM 60.8 °F 51.8 °F 72% 29.88 in 10.0 mi East 5.8 mph - N/A   Overcast
8:31 PM 60.8 °F 50.0 °F 68% 29.88 in 10.0 mi ESE 8.1 mph - N/A   Overcast
8:52 PM 59.0 °F 51.8 °F 77% 29.88 in 10.0 mi East 8.1 mph - N/A   Overcast
9:11 PM 57.2 °F 51.8 °F 82% 29.87 in 10.0 mi East 11.5 mph 17.3 mph N/A   Overcast
9:31 PM 57.2 °F 51.8 °F 82% 29.88 in 10.0 mi East 13.8 mph 18.4 mph N/A   Overcast
9:51 PM 57.2 °F 51.8 °F 82% 29.88 in 10.0 mi East 8.1 mph 17.3 mph N/A   Overcast
10:11 PM 57.2 °F 51.8 °F 82% 29.87 in 10.0 mi East 10.4 mph - N/A   Overcast
10:32 PM 57.2 °F 51.8 °F 82% 29.86 in 10.0 mi East 9.2 mph - N/A   Overcast
10:51 PM 57.2 °F 51.8 °F 82% 29.86 in 10.0 mi East 8.1 mph 16.1 mph N/A   Overcast
11:11 PM 57.2 °F 51.8 °F 82% 29.87 in 10.0 mi East 5.8 mph - N/A   Overcast
11:32 PM 57.2 °F 51.8 °F 82% 29.87 in 10.0 mi East 10.4 mph - N/A   Overcast
11:51 PM 55.4 °F 51.8 °F 88% 29.86 in 10.0 mi ESE 10.4 mph - N/A   Overcast